{"data":{"norad_id":51897,"epoch":"2026-09-20T04:20:17.881728Z","epoch_age_seconds":83748,"freshness":"FRESH","line1":"1 51897U 22022AX  26263.18076252 -.00000082  00000+0  87151-5 0  9995","line2":"2 51897  53.1604 188.9071 0001547  76.6948 283.4227 15.34384416252840","mean_motion":15.34384416,"eccentricity":0.0001547,"inclination_deg":53.1604,"raan_deg":188.9071,"arg_perigee_deg":76.6948,"mean_anomaly_deg":283.4227,"bstar":8.7151e-6,"rev_number":25284,"period_min":93.848711247599,"perigee_km":461.69127438056,"apogee_km":463.80784468208,"semimajor_km":6840.8865595313,"source":"CELESTRAK","updated_at":"2026-09-20T09:00:39.974589Z"}}